Salvador Airport, Brazil

10:13 AM -02 en Noviembre 14, 2018 (GMT -0200)
DEP. L. E. Magalhaes International

Tiempo Historia de SBSV - Junio, 2018

Change the Weather History Date:

Miércoles, Junio 13, 2018

  Actual Average Record
Temperature  
Temperatura media 79 ° F -  
Temperatura máxima 84 ° F 80 ° F 84 ° F (1998)
Temperatura mínima 74 ° F 71 ° F 66 ° F (2006)
Cooling Degree Days 14    
Growing Degree Days 29 (Base 50)    
Moisture  
Punto de rocío 72 ° F    
Average Humidity 74    
Maximum Humidity 89    
Minimum Humidity 60    
Precipitación  
Precipitación 0.00 pul - - ()
Presión al nivel del mar  
Presión al nivel del mar 30.06 pul    
Viento  
Velocidad del viento 8 mph ()    
Velocidad máxima del viento 16 mph    
Max Gust Speed -    
Visibilidad 7.6 Millas    
Eventos      
Averages and records for this station are not official NWS values.
T = Trace of Precipitation, MM = Missing Value Source: Averaged Metar Reports

Daily Weather History Graph

Daily Weather History Graph

Search for Another Location

Airport or City:

Astronomía

Jun. 13, 2018 Salida Puesta
Hora real 5:52 AM -03 5:14 PM -03
Crepúsculo civil 5:29 AM -03 5:37 PM -03
Crepúsculo náutico 5:02 AM -03 6:04 PM -03
Crepúsculo astronómico 4:36 AM -03 6:30 PM -03
Luna 5:25 AM -03 (6/13) 5:15 PM -03 (6/13)
Horas de luz 12h 08m
Horas de luz
11h 22m
Creciente menguante, 0% of the Moon is Illuminated
Jun 13
Creciente menguante
Jun 13
Nueva
Jun 20
Cuarto creciente
Jun 28
Luna llena
Jul 6
Cuarto menguante

Hourly Weather History & Observations

Hora (-03) Temp. Índice de calor Punto de rocío Humedad Presión Visibilidad Wind Dir Velocidad del viento Velocidad de ráfagas Precip Eventos Condiciones
12:00 AM 75 ° F - 72 ° F 89% 30.07 pul 12 mi Oeste 2.3 mph - -   Parcialmente nublado
12:00 AM 75.2 ° F - 71.6 ° F 89% 30.06 pul 6.2 mi Variable 2.3 mph - N/A   Muy nublado
1:00 AM 77.0 ° F - 71.6 ° F 83% 30.04 pul 6.2 mi Este 11.5 mph - N/A   Muy nublado
2:00 AM 77.0 ° F - 73.4 ° F 89% 30.04 pul 6.2 mi Variable 4.6 mph - N/A   Muy nublado
3:00 AM 76 ° F - 71 ° F 82% 30.03 pul 12 mi ESE 15.0 mph - -   Parcialmente nublado
3:00 AM 77.0 ° F - 71.6 ° F 83% 30.04 pul 6.2 mi ESE 15.0 mph - N/A   Nubes dispersas
4:00 AM 77.0 ° F - 71.6 ° F 83% 30.01 pul 6.2 mi Este 8.1 mph - N/A   Muy nublado
5:00 AM 78.8 ° F - 73.4 ° F 83% 30.04 pul 6.2 mi Este 10.4 mph - N/A   Muy nublado
6:00 AM 78 ° F - 72 ° F 76% 30.05 pul 12 mi Este 10.4 mph - -   Parcialmente nublado
6:00 AM 78.8 ° F - 71.6 ° F 78% 30.04 pul 6.2 mi Este 10.4 mph - N/A   Nubes dispersas
7:00 AM 78.8 ° F - 73.4 ° F 83% 30.06 pul 6.2 mi Este 6.9 mph - N/A   Nubes dispersas
8:00 AM 80.6 ° F 84.6 ° F 71.6 ° F 74% 30.09 pul 6.2 mi Este 12.7 mph - N/A   Parcialmente nublado
9:00 AM 83 ° F - 72 ° F 63% 30.11 pul 12 mi Este 13.8 mph - -   Nubes dispersas
9:00 AM 82.4 ° F 88.2 ° F 73.4 ° F 74% 30.09 pul 6.2 mi Este 13.8 mph - N/A   Parcialmente nublado
10:00 AM 82.4 ° F 88.2 ° F 73.4 ° F 74% 30.09 pul 6.2 mi Este 12.7 mph - N/A   Parcialmente nublado
11:00 AM 82.4 ° F 86.3 ° F 69.8 ° F 66% 30.09 pul 6.2 mi Este 16.1 mph - N/A   Parcialmente nublado
12:00 PM 84 ° F - 72 ° F 60% 30.09 pul 12 mi Este 12.7 mph - -   Nubes dispersas
12:00 PM 84.2 ° F 89.6 ° F 71.6 ° F 66% 30.06 pul 6.2 mi Este 12.7 mph - N/A   Parcialmente nublado
1:00 PM 84.2 ° F 89.6 ° F 71.6 ° F 66% 30.06 pul 6.2 mi Este 13.8 mph - N/A   Parcialmente nublado
2:00 PM 84.2 ° F 89.6 ° F 71.6 ° F 66% 30.04 pul 6.2 mi Este 12.7 mph - N/A   Nubes dispersas
3:00 PM 83 ° F - 72 ° F 62% 30.03 pul 12 mi Este 11.5 mph - -   Parcialmente nublado
3:00 PM 84.2 ° F 89.6 ° F 71.6 ° F 66% 30.04 pul 6.2 mi Este 11.5 mph - N/A   Nubes dispersas
4:00 PM 82.4 ° F 87.2 ° F 71.6 ° F 70% 30.04 pul 6.2 mi Este 10.4 mph - N/A   Nubes dispersas
5:00 PM 80.6 ° F 84.6 ° F 71.6 ° F 74% 30.04 pul 6.2 mi Este 10.4 mph - N/A   Nubes dispersas
6:00 PM 80 ° F - 70 ° F 64% 30.06 pul 12 mi ESE 9.2 mph - -   Parcialmente nublado
6:00 PM 80.6 ° F 83.9 ° F 69.8 ° F 70% 30.04 pul 6.2 mi ESE 9.2 mph - N/A   Nubes dispersas
7:00 PM 78.8 ° F - 69.8 ° F 74% 30.06 pul 6.2 mi ESE 6.9 mph - N/A   Parcialmente nublado
8:00 PM 78.8 ° F - 69.8 ° F 74% 30.06 pul 6.2 mi ESE 8.1 mph - N/A   Parcialmente nublado
9:00 PM 80 ° F - 70 ° F 64% 30.09 pul 12 mi ESE 6.9 mph - -   Nubes dispersas
9:00 PM 78.8 ° F - 69.8 ° F 74% 30.09 pul 6.2 mi ESE 6.9 mph - N/A   Parcialmente nublado
10:00 PM 80.6 ° F 84.6 ° F 71.6 ° F 74% 30.09 pul 6.2 mi ESE 8.1 mph - N/A   Nubes dispersas
11:00 PM 78.8 ° F - 71.6 ° F 78% 30.06 pul 6.2 mi Este 8.1 mph - N/A   Parcialmente nublado